User: anonymous   Login
Location: North Mitre
(40.7833°S, 175.4667°E)
Time: 01:42:16
(UTC+00:00)
Language:

SL-16 R/B - Orbit

View from above orbital plane
View from above orbital plane
View from above satellite
View from above satellite

Ground track
Ground track

The orbit data is extracted from the following two-line orbital elements,

1 27006U 01056F   24287.40567598  .00000066  00000-0  12480-3 0  9994
2 27006  99.7042  75.5807 0014019 221.1527 193.1989 13.71047362142994
Epoch (UTC): 13 October 2024 09:44:10
Eccentricity: 0.0014019
inclination: 99.7042°
perigee height: 985 km
apogee height: 1006 km
right ascension of ascending node: 75.5807°
argument of perigee: 221.1527°
revolutions per day: 13.71047362
mean anomaly at epoch: 193.1989°
orbit number at epoch: 14299

The dashed part of the orbit path shows where the satellite is in the earth's shadow,  

DLR